PERSEUS-M1

Last updated on Dec. 9, 2021, 12:03 a.m. UTC

1 40039U 14033AF  21342.53847839  .00000224  00000+0  31566-4 0  9998
2 40039  97.8850 259.0104 0013915 349.1664  10.9250 14.86390618404649
UTC
Height (km)
Latitude
Longitude
Inclination
Orbital Period
UTC large
Height (km)
Speed (km/s)
/
Latitude / Longitude
Inclination (degrees)
Orbital Period (minutes)
Azimuth
Elevation
Range (km)
Doppler Factor
iOS Compass Heading
iOS Angle